�������l�o���
Date,Time,MP-1(��Sv/h),MP-2(��Sv/h),MP-3(��Sv/h),MP-4(��Sv/h),MP-5(��Sv/h),MP-6(��Sv/h),MP-7(��Sv/h),MP-8(��Sv/h),����,����(m/s),���J
2020/03/15,00:00,0.668,0.954,0.645,1.165,0.826,0.390,0.682,0.650,�k�k��,7.2,��
2020/03/15,00:10,0.669,0.953,0.643,1.167,0.828,0.390,0.682,0.650,�k��,7.2,��
2020/03/15,00:20,0.669,0.954,0.643,1.167,0.828,0.390,0.683,0.649,�k�k��,7.0,��
2020/03/15,00:30,0.669,0.954,0.644,1.166,0.828,0.390,0.682,0.649,�k��,7.4,��
2020/03/15,00:40,0.667,0.953,0.643,1.166,0.829,0.389,0.683,0.649,�k��,6.3,��
2020/03/15,00:50,0.669,0.954,0.643,1.166,0.830,0.389,0.681,0.650,�k�k��,7.2,��
2020/03/15,01:00,0.667,0.952,0.645,1.164,0.830,0.389,0.682,0.650,�k��,6.8,��
2020/03/15,01:10,0.668,0.953,0.643,1.165,0.829,0.390,0.682,0.651,�k�k��,6.6,��
2020/03/15,01:20,0.670,0.954,0.645,1.167,0.828,0.390,0.682,0.652,�k�k��,6.4,��
2020/03/15,01:30,0.670,0.953,0.644,1.167,0.830,0.390,0.683,0.651,�k�k��,6.9,��
2020/03/15,01:40,0.667,0.953,0.645,1.167,0.830,0.391,0.681,0.650,�k�k��,6.9,��
2020/03/15,01:50,0.669,0.954,0.644,1.168,0.829,0.390,0.683,0.650,�k�k��,7.8,��
2020/03/15,02:00,0.668,0.955,0.643,1.164,0.829,0.390,0.684,0.651,�k�k��,7.2,��
2020/03/15,02:10,0.670,0.954,0.644,1.169,0.829,0.392,0.684,0.650,�k�k��,8.3,��
2020/03/15,02:20,0.671,0.955,0.644,1.167,0.830,0.391,0.682,0.649,�k�k��,7.7,��
2020/03/15,02:30,0.668,0.953,0.643,1.168,0.831,0.390,0.683,0.652,�k�k��,8.1,��
2020/03/15,02:40,0.669,0.953,0.644,1.168,0.830,0.391,0.685,0.650,�k�k��,7.9,��
2020/03/15,02:50,0.670,0.953,0.644,1.170,0.831,0.390,0.684,0.651,�k�k��,8.3,��
2020/03/15,03:00,0.668,0.954,0.643,1.166,0.831,0.390,0.684,0.651,�k�k��,9.0,��
2020/03/15,03:10,0.670,0.955,0.646,1.169,0.830,0.391,0.684,0.650,�k�k��,8.4,��
2020/03/15,03:20,0.670,0.954,0.644,1.167,0.829,0.390,0.684,0.653,�k�k��,7.3,��
2020/03/15,03:30,0.668,0.955,0.644,1.169,0.830,0.390,0.683,0.650,�k�k��,8.4,��
2020/03/15,03:40,0.670,0.954,0.645,1.171,0.830,0.390,0.684,0.651,�k��,9.5,��
2020/03/15,03:50,0.671,0.953,0.645,1.170,0.830,0.390,0.683,0.651,�k�k��,8.8,��
2020/03/15,04:00,0.670,0.954,0.645,1.169,0.829,0.391,0.684,0.652,�k��,8.5,��
2020/03/15,04:10,0.671,0.952,0.644,1.170,0.832,0.391,0.684,0.650,�k��,7.5,��
2020/03/15,04:20,0.669,0.954,0.644,1.168,0.832,0.391,0.683,0.649,�k�k��,6.4,��
2020/03/15,04:30,0.668,0.955,0.644,1.171,0.832,0.391,0.684,0.650,�k�k��,5.9,��
2020/03/15,04:40,0.669,0.956,0.645,1.169,0.830,0.390,0.683,0.651,�k�k��,5.6,��
2020/03/15,04:50,0.670,0.955,0.647,1.172,0.830,0.390,0.683,0.653,�k�k��,6.8,��
2020/03/15,05:00,0.670,0.954,0.645,1.170,0.829,0.389,0.683,0.650,�k�k��,6.8,��
2020/03/15,05:10,0.668,0.955,0.646,1.171,0.830,0.391,0.685,0.651,�k��,7.0,��
2020/03/15,05:20,0.670,0.955,0.644,1.171,0.832,0.391,0.686,0.650,�k��,5.3,��
2020/03/15,05:30,0.668,0.953,0.644,1.171,0.831,0.392,0.683,0.652,�k�k��,5.3,��
2020/03/15,05:40,0.667,0.954,0.643,1.169,0.833,0.390,0.684,0.651,�k�k��,5.3,��
2020/03/15,05:50,0.670,0.952,0.642,1.169,0.831,0.390,0.684,0.651,�k��,4.9,��
2020/03/15,06:00,0.669,0.955,0.646,1.172,0.831,0.391,0.683,0.652,�k��,5.6,��
2020/03/15,06:10,0.669,0.954,0.645,1.170,0.831,0.390,0.683,0.651,�k��,5.3,��
2020/03/15,06:20,0.670,0.955,0.644,1.172,0.832,0.389,0.684,0.651,�k�k��,4.5,��
2020/03/15,06:30,0.670,0.953,0.643,1.173,0.831,0.390,0.684,0.650,�k�k��,4.9,��
2020/03/15,06:40,0.668,0.956,0.647,1.173,0.831,0.390,0.683,0.652,�k��,4.0,��
2020/03/15,06:50,0.669,0.955,0.644,1.173,0.832,0.391,0.685,0.653,�k��,3.1,��
2020/03/15,07:00,0.670,0.957,0.645,1.173,0.828,0.390,0.685,0.651,�k��,3.3,��
2020/03/15,07:10,0.672,0.956,0.644,1.170,0.830,0.390,0.685,0.651,���k��,3.0,��
2020/03/15,07:20,0.670,0.957,0.645,1.171,0.833,0.392,0.684,0.652,���k��,2.2,��
2020/03/15,07:30,0.667,0.957,0.645,1.172,0.832,0.392,0.683,0.653,���쐼,1.7,��
2020/03/15,07:40,0.672,0.957,0.645,1.171,0.832,0.391,0.683,0.653,��,1.2,��
2020/03/15,07:50,0.672,0.958,0.644,1.173,0.833,0.391,0.685,0.652,��,2.0,��
2020/03/15,08:00,0.672,0.958,0.645,1.174,0.833,0.392,0.684,0.653,�k��,2.2,��
2020/03/15,08:10,0.672,0.957,0.644,1.174,0.832,0.392,0.685,0.651,�k��,3.1,��
2020/03/15,08:20,0.674,0.960,0.647,1.173,0.836,0.391,0.685,0.652,�k��,4.0,��
2020/03/15,08:30,0.674,0.959,0.646,1.171,0.833,0.391,0.686,0.654,�k��,4.0,��
2020/03/15,08:40,0.674,0.960,0.646,1.175,0.834,0.392,0.686,0.652,�k��,4.1,��
2020/03/15,08:50,0.675,0.960,0.646,1.175,0.836,0.391,0.685,0.652,�k��,5.2,��
2020/03/15,09:00,0.676,0.958,0.647,1.175,0.835,0.390,0.687,0.652,�k��,8.4,��
2020/03/15,09:10,0.676,0.959,0.647,1.174,0.836,0.392,0.683,0.653,�k��,4.9,��
2020/03/15,09:20,0.675,0.958,0.647,1.176,0.837,0.392,0.684,0.652,�k��,5.1,��
2020/03/15,09:30,0.676,0.958,0.649,1.175,0.837,0.393,0.684,0.653,�k�k��,2.8,��
2020/03/15,09:40,0.675,0.960,0.650,1.177,0.837,0.393,0.684,0.653,���k��,2.3,��
2020/03/15,09:50,0.677,0.961,0.650,1.177,0.838,0.392,0.685,0.654,��,2.8,��
2020/03/15,10:00,0.678,0.961,0.651,1.178,0.840,0.394,0.683,0.653,���쐼,1.2,��
2020/03/15,10:10,0.676,0.963,0.650,1.175,0.838,0.393,0.684,0.651,���k��,2.9,��
2020/03/15,10:20,0.678,0.963,0.649,1.176,0.842,0.393,0.685,0.653,��,3.7,��
2020/03/15,10:30,0.678,0.964,0.651,1.176,0.842,0.393,0.684,0.652,��,2.8,��
2020/03/15,10:40,0.678,0.965,0.651,1.178,0.840,0.393,0.683,0.654,���쐼,1.5,��
2020/03/15,10:50,0.680,0.968,0.653,1.178,0.841,0.394,0.683,0.653,��,2.6,��
2020/03/15,11:00,0.678,0.965,0.651,1.179,0.843,0.393,0.687,0.654,��,3.1,��
2020/03/15,11:10,0.681,0.966,0.653,1.176,0.844,0.392,0.686,0.653,��,4.7,��
2020/03/15,11:20,0.680,0.968,0.652,1.178,0.842,0.392,0.684,0.654,��,3.6,��
2020/03/15,11:30,0.680,0.969,0.652,1.177,0.843,0.393,0.685,0.654,�k��,3.3,��
2020/03/15,11:40,0.680,0.967,0.653,1.181,0.843,0.391,0.687,0.652,�k��,3.4,��
2020/03/15,11:50,0.682,0.969,0.654,1.179,0.842,0.394,0.685,0.653,���k��,1.7,��
2020/03/15,12:00,0.681,0.969,0.654,1.181,0.843,0.395,0.685,0.653,���k��,2.2,��
2020/03/15,12:10,0.680,0.970,0.652,1.181,0.843,0.393,0.688,0.655,���k��,3.9,��
2020/03/15,12:20,0.681,0.967,0.654,1.181,0.844,0.396,0.686,0.655,��,2.9,��
2020/03/15,12:30,0.681,0.968,0.652,1.184,0.845,0.396,0.686,0.654,�k��,4.0,��
2020/03/15,12:40,0.681,0.971,0.655,1.182,0.846,0.394,0.686,0.655,���k��,3.7,��
2020/03/15,12:50,0.679,0.972,0.652,1.183,0.844,0.394,0.685,0.656,�k�k��,1.4,��
2020/03/15,13:00,0.681,0.971,0.653,1.183,0.843,0.394,0.687,0.657,�k��,2.9,��
2020/03/15,13:10,0.679,0.972,0.653,1.182,0.845,0.395,0.687,0.656,��,4.4,��
2020/03/15,13:20,0.681,0.973,0.653,1.181,0.844,0.396,0.687,0.655,���k��,4.1,��
2020/03/15,13:30,0.681,0.973,0.654,1.183,0.844,0.395,0.687,0.656,��,5.1,��
2020/03/15,13:40,0.680,0.972,0.654,1.183,0.846,0.395,0.686,0.655,��,5.4,��
2020/03/15,13:50,0.682,0.974,0.655,1.180,0.842,0.396,0.688,0.657,��,4.8,��
2020/03/15,14:00,0.682,0.971,0.654,1.184,0.846,0.395,0.687,0.656,��,5.2,��
2020/03/15,14:10,0.681,0.973,0.654,1.182,0.846,0.395,0.686,0.656,���쓌,5.4,��
2020/03/15,14:20,0.682,0.971,0.656,1.180,0.843,0.393,0.687,0.658,���쓌,5.6,��
2020/03/15,14:30,0.683,0.970,0.656,1.182,0.846,0.395,0.689,0.656,��,5.0,��
2020/03/15,14:40,0.684,0.974,0.656,1.183,0.848,0.396,0.688,0.656,���쓌,5.8,��
2020/03/15,14:50,0.683,0.976,0.657,1.183,0.847,0.395,0.687,0.657,���쓌,4.7,��
2020/03/15,15:00,0.683,0.976,0.656,1.184,0.845,0.394,0.688,0.658,���쓌,4.9,��
2020/03/15,15:10,0.684,0.977,0.656,1.184,0.848,0.394,0.686,0.655,���쓌,4.7,��
2020/03/15,15:20,0.684,0.968,0.657,1.187,0.848,0.396,0.686,0.658,�쓌,5.1,��
2020/03/15,15:30,0.683,0.967,0.656,1.184,0.847,0.396,0.688,0.656,���쓌,5.2,��
2020/03/15,15:40,0.684,0.966,0.656,1.182,0.849,0.395,0.688,0.655,�쓌,4.5,��
2020/03/15,15:50,0.684,0.979,0.657,1.183,0.847,0.395,0.688,0.656,�쓌,5.3,��
2020/03/15,16:00,0.685,0.981,0.658,1.181,0.848,0.394,0.688,0.657,�쓌,4.9,��
2020/03/15,16:10,0.684,0.977,0.656,1.183,0.849,0.396,0.688,0.658,�쓌,5.2,��
2020/03/15,16:20,0.683,0.978,0.655,1.187,0.848,0.394,0.687,0.656,�쓌,5.4,��
2020/03/15,16:30,0.683,0.977,0.655,1.184,0.848,0.396,0.689,0.657,�쓌,6.3,��
2020/03/15,16:40,0.685,0.978,0.656,1.186,0.849,0.395,0.687,0.656,�쓌,6.0,��
2020/03/15,16:50,0.685,0.977,0.656,1.183,0.849,0.395,0.687,0.656,�쓌,6.3,��
2020/03/15,17:00,0.684,0.979,0.657,1.184,0.848,0.395,0.689,0.656,��쓌,6.3,��
2020/03/15,17:10,0.685,0.980,0.658,1.185,0.850,0.397,0.690,0.657,��쓌,5.9,��
2020/03/15,17:20,0.683,0.977,0.656,1.185,0.848,0.395,0.689,0.657,��쓌,5.9,��
2020/03/15,17:30,0.684,0.979,0.656,1.187,0.849,0.395,0.689,0.656,��쓌,5.8,��
2020/03/15,17:40,0.684,0.979,0.658,1.184,0.849,0.396,0.688,0.655,��쓌,6.1,��
2020/03/15,17:50,0.684,0.981,0.657,1.186,0.848,0.396,0.689,0.656,��쓌,6.3,��
2020/03/15,18:00,0.684,0.978,0.657,1.184,0.847,0.396,0.690,0.656,��쓌,6.7,��
2020/03/15,18:10,0.684,0.977,0.656,1.185,0.848,0.395,0.688,0.655,��쓌,7.5,��
2020/03/15,18:20,0.684,0.979,0.655,1.184,0.850,0.397,0.690,0.657,��쓌,7.0,��
2020/03/15,18:30,0.683,0.978,0.656,1.185,0.849,0.396,0.691,0.656,��쓌,6.7,��
2020/03/15,18:40,0.684,0.979,0.656,1.186,0.850,0.396,0.689,0.656,��쓌,6.4,��
2020/03/15,18:50,0.684,0.980,0.656,1.183,0.851,0.396,0.690,0.656,��쓌,7.2,��
2020/03/15,19:00,0.685,0.980,0.657,1.185,0.849,0.397,0.690,0.656,��쓌,8.2,��
2020/03/15,19:10,0.683,0.980,0.658,1.185,0.848,0.398,0.689,0.654,��쓌,7.4,��
2020/03/15,19:20,0.684,0.980,0.655,1.186,0.850,0.397,0.690,0.655,��쓌,7.4,��
2020/03/15,19:30,0.684,0.980,0.658,1.185,0.851,0.397,0.690,0.656,��쓌,7.3,��
2020/03/15,19:40,0.685,0.980,0.655,1.187,0.851,0.397,0.690,0.656,��쓌,8.7,��
2020/03/15,19:50,0.683,0.980,0.658,1.184,0.853,0.396,0.691,0.655,�쓌,8.7,��
2020/03/15,20:00,0.686,0.978,0.657,1.186,0.850,0.397,0.690,0.657,��쓌,7.4,��
2020/03/15,20:10,0.682,0.979,0.656,1.185,0.851,0.398,0.691,0.657,��쓌,8.5,��
2020/03/15,20:20,0.684,0.980,0.657,1.185,0.850,0.397,0.690,0.658,��쓌,7.7,��
2020/03/15,20:30,0.684,0.980,0.658,1.185,0.850,0.397,0.690,0.657,��쓌,7.8,��
2020/03/15,20:40,0.686,0.980,0.659,1.183,0.851,0.397,0.691,0.656,��쓌,7.8,��
2020/03/15,20:50,0.684,0.980,0.659,1.185,0.852,0.397,0.689,0.656,��쓌,6.7,��
2020/03/15,21:00,0.685,0.981,0.658,1.186,0.850,0.397,0.691,0.657,��쓌,7.3,��
2020/03/15,21:10,0.683,0.979,0.658,1.184,0.851,0.399,0.691,0.656,��쓌,8.2,��
2020/03/15,21:20,0.684,0.980,0.657,1.186,0.850,0.397,0.689,0.656,��쓌,8.5,��
2020/03/15,21:30,0.684,0.979,0.658,1.188,0.850,0.398,0.691,0.656,��쓌,7.6,��
2020/03/15,21:40,0.686,0.979,0.657,1.186,0.851,0.398,0.691,0.657,��쓌,7.7,��
2020/03/15,21:50,0.684,0.982,0.656,1.189,0.851,0.398,0.691,0.656,��쓌,7.2,��
2020/03/15,22:00,0.685,0.981,0.658,1.187,0.851,0.398,0.690,0.659,��쓌,7.9,��
2020/03/15,22:10,0.684,0.980,0.659,1.188,0.850,0.399,0.691,0.657,��쓌,7.8,��
2020/03/15,22:20,0.684,0.980,0.659,1.185,0.850,0.398,0.689,0.656,��쓌,6.9,��
2020/03/15,22:30,0.685,0.982,0.658,1.185,0.850,0.397,0.690,0.655,�쓌,6.4,��
2020/03/15,22:40,0.686,0.981,0.657,1.188,0.854,0.398,0.690,0.655,�쓌,6.0,��
2020/03/15,22:50,0.684,0.980,0.658,1.188,0.852,0.397,0.690,0.656,�쓌,5.3,��
2020/03/15,23:00,0.685,0.981,0.658,1.186,0.853,0.398,0.691,0.656,��쓌,5.6,��
2020/03/15,23:10,0.687,0.982,0.658,1.187,0.851,0.398,0.689,0.656,��쓌,5.5,��
2020/03/15,23:20,0.683,0.980,0.657,1.188,0.851,0.398,0.690,0.656,�쓌,6.2,��
2020/03/15,23:30,0.685,0.981,0.658,1.186,0.852,0.398,0.689,0.656,��쓌,5.5,��
2020/03/15,23:40,0.684,0.982,0.658,1.189,0.852,0.397,0.690,0.656,��쓌,6.3,��
2020/03/15,23:50,0.684,0.981,0.658,1.188,0.851,0.398,0.690,0.657,��쓌,6.6,�L
